Location: Cardiff
(53.7833°N, 113.6000°W)
Time: 01:08:13
(UTC+00:00)

RS-15 - Pass Details

Date: 07 December 2023
Orbit: 1893 x 2151 km, 64.8° (Epoch: 24 February)

Event Time Altitude Azimuth Distance (km) Brightness Sun altitude
Rises 00:59:16 0° 137° (SE) 5,649 10.2 -14.3°
Reaches altitude 10° 01:05:31 10° 114° (ESE) 4,623 9.6 -15.2°
Enters shadow 01:08:11 13° 101° (E) 4,389 9.3 -15.6°
